Location: Muenchen
(48.1800°N, 11.5800°E)
Time: 08:09:00
(UTC+02:00)

Iridium 36 - Visible Passes

Search period start: 30 July 2015 00:00
Search period end: 09 August 2015 00:00
Orbit: 772 x 775 km, 86.4° (Epoch: 29 July)

Date Brightness Start Highest point End Pass type
(mag) Time Alt. Az. Time Alt. Az. Time Alt. Az.
30 Jul 7.8 22:22:12 10° SW 22:26:32 26° WNW 22:30:48 10° NNW visible
31 Jul 6.8 21:46:36 10° SSW 21:51:33 44° W 21:56:31 10° N visible
01 Aug 8.5 22:56:32 10° W 22:58:27 12° WNW 23:00:06 10° NW visible
02 Aug 8.2 22:19:21 10° WSW 22:23:13 20° WNW 22:26:57 10° NNW visible
03 Aug 7.3 21:43:25 10° SW 21:48:09 34° WNW 21:52:51 10° NNW visible
05 Aug 8.4 22:16:42 10° WSW 22:19:55 16° WNW 22:22:57 10° NNW visible
06 Aug 7.9 21:40:22 10° SW 21:44:46 27° WNW 21:49:07 10° NNW visible
08 Aug 8.7 22:14:27 10° W 22:16:39 12° WNW 22:18:36 10° NW visible
